KSFOKSQL

Guest
Details From KSFO - San Francisco Intl
To KSQL - San Carlos
Flight Number -
Tags decoded
Created
Modified
Stats Distance 9 nm / 16 km
Max Altitude 0 ft / 0 m
Waypoints 2
Social Downloads 6
Likes 0
Share VATSIM

Download

Looking for another format? Having issues loading an existing format? Contact us
Advertisement - Login to hide

Notes

Requested: KSFO KSQL

Route

KSFO KSQL

ID Type Via Altitude Latitude Longitude Leg Dist Tot Dist Heading (true) Name
O KSFO APT - 0 ft / 0 m 37.61867˚ -122.37501˚ - 0 nm - San Francisco Intl
O KSQL APT - 0 ft / 0 m 37.51173˚ -122.24939˚ 8 nm 8 nm 137° / 137° San Carlos

Altitude Profile

Advertisement - Login to hide

KSFO

Details ICAO KSFO (SFO)
Name San Francisco Intl
Region United States
Timezone America/Los_Angeles (UTC-7.0)
Stats Elevation 13 ft / 4 m (AMSL)
Location 37.618674° -122.375008°
Runways 4
Magnetic Variation 13.422° E

METAR

KSFO 211956Z 26016G24KT 10SM FEW180 17/09 A2989 RMK AO2 SLP120 T01720089

Decode

TAF

KSFO 212057Z 2121/2224 27017G24KT P6SM FEW020 FEW150 TEMPO 2202/2204 BKN018 FM220400 27010KT P6SM BKN018 FM220600 26009KT P6SM OVC016 FM221600 25008KT P6SM BKN018 FM221800 26010KT P6SM SCT020 SCT100 FM222200 26014KT P6SM FEW022 FEW100

Decode

Departure Runways

ID Width Length Bearing (true) Bearing (mag) Surface Threshold Offset Overrun Length
01L 200 ft / 61 m 7,509 ft / 2,289 m 27.70° 14.28° Asphalt 492 ft / 150 m 0 ft / 0 m
01R 200 ft / 61 m 8,907 ft / 2,715 m 27.71° 14.29° Asphalt 492 ft / 150 m 0 ft / 0 m
10L 200 ft / 61 m 11,856 ft / 3,614 m 117.89° 104.47° Asphalt 0 ft / 0 m 860 ft / 262 m
10R 200 ft / 61 m 10,589 ft / 3,228 m 117.90° 104.48° Asphalt 0 ft / 0 m 0 ft / 0 m
19L 200 ft / 61 m 8,907 ft / 2,715 m 207.72° 194.30° Asphalt 0 ft / 0 m 0 ft / 0 m
19R 200 ft / 61 m 7,509 ft / 2,289 m 207.70° 194.28° Asphalt 0 ft / 0 m 0 ft / 0 m
28L 200 ft / 61 m 10,589 ft / 3,228 m 297.92° 284.50° Asphalt 0 ft / 0 m 341 ft / 104 m
28R 200 ft / 61 m 11,856 ft / 3,614 m 297.91° 284.49° Asphalt 0 ft / 0 m 341 ft / 104 m

KSQL

Details ICAO KSQL (SQL)
Name San Carlos
Region United States
Timezone America/Los_Angeles (UTC-7.0)
Stats Elevation 5 ft / 2 m (AMSL)
Location 37.511735° -122.249386°
Runways 1
Magnetic Variation 13.380° E

METAR

KSQL 211950Z 26015G20KT 10SM FEW020 18/10 A2987

Decode

TAF

Not found

Destination Runways

ID Width Length Bearing (true) Bearing (mag) Surface Threshold Offset Overrun Length
12 75 ft / 23 m 2,619 ft / 798 m 138.39° 125.01° Asphalt 0 ft / 0 m 299 ft / 91 m
30 75 ft / 23 m 2,619 ft / 798 m 318.40° 305.02° Asphalt 0 ft / 0 m 135 ft / 41 m

Popular Alternatives